Flag for Poland Weather past 2 weeks in Warsaw, Poland

Now
27 °F

Clear.


Feels Like: 16 °F
Forecast: 30 / 47 °F
Wind: 13 mph from Southeast

Location: Warsaw Okecie Airport

Current Time: Oct 25, 2014 at 6:38:19 AM

Latest Report: Oct 25, 2014 at 6:00 AM


Visibility: 10 mi

Pressure: 30.33 "Hg

Humidity: 69%

Dew point: 18 °F

Location of WarsawLocation

Historic Weather in Warsaw — Graph

°F

Warsaw temperature yesterday

Maximum temperature yesterday: 41 °F (at 2:30 PM)
Minimum temperature yesterday: 28 °F (at 6:00 AM)
Average temperature yesterday: 34 °F

Past Weeks' High & Low Weather Summary

 TemperatureHumidityPressure
High73 °F (Oct 10, 2:00 PM)100% (Oct 10, 5:00 AM)30.39 "Hg (Oct 10, 5:00 AM)
Low27 °F (Oct 25, 5:30 AM)39% (Oct 24, 2:30 PM)29.56 "Hg (Oct 22, 4:30 AM)
Average52 °F86%29.94 "Hg
* Reported Oct 10 5:00 AM — Oct 25 5:30 AM, Warsaw, Weather by CustomWeather, © 2014

Note: Actual official high and low records may vary slightly from our data, if they occured in-between our weather recording intervals... More about our weather records

Advertising

Warsaw weather history for previous 24 hours

 ConditionsComfort  
Time TempWeatherWind HumidityBarometerVisibility
5:30 AM
Oct 25
27 °FClear.12 mph69%30.33 "Hg10 mi
5:00 AM28 °FClear.10 mph64%30.36 "Hg10 mi
4:30 AM28 °FClear.12 mph64%30.36 "Hg10 mi
4:00 AM28 °FClear.12 mph64%30.36 "Hg10 mi
3:30 AM28 °FClear.13 mph64%30.36 "Hg10 mi
3:00 AM28 °FClear.12 mph64%30.36 "Hg10 mi
2:30 AM28 °FClear.14 mph64%30.36 "Hg10 mi
2:00 AM28 °FClear.13 mph64%30.39 "Hg10 mi
1:30 AM28 °FClear.12 mph64%30.39 "Hg10 mi
1:00 AM28 °FClear.10 mph64%30.39 "Hg10 mi
12:30 AM30 °FClear.10 mph59%30.39 "Hg10 mi
12:00 AM30 °FClear.10 mph64%30.39 "Hg10 mi
11:30 PM
Oct 24
30 °FClear.12 mph64%30.39 "Hg10 mi
11:00 PM30 °FClear.13 mph64%30.39 "Hg10 mi
10:30 PM30 °FClear.12 mph64%30.39 "Hg10 mi
10:00 PM32 °FClear.14 mph60%30.39 "Hg10 mi
9:30 PM32 °FClear.14 mph60%30.39 "Hg10 mi
9:00 PM32 °FPassing clouds.13 mph60%30.39 "HgN/A
8:30 PM32 °FClear.13 mph60%30.39 "Hg10 mi
8:00 PM32 °FClear.10 mph64%30.39 "Hg10 mi
7:30 PM32 °FClear.12 mph64%30.39 "Hg10 mi
7:00 PM34 °FClear.13 mph60%30.39 "Hg10 mi
6:30 PM34 °FClear.10 mph60%30.39 "Hg10 mi
6:00 PM36 °FPassing clouds.12 mph56%30.39 "HgN/A
5:30 PM37 °FPassing clouds.9 mph48%30.39 "HgN/A
5:00 PM37 °FSunny.12 mph52%30.39 "Hg10 mi
4:30 PM39 °FPassing clouds.10 mph45%30.39 "HgN/A
4:00 PM39 °FPassing clouds.13 mph42%30.39 "HgN/A
3:30 PM41 °FPassing clouds.12 mph39%30.39 "HgN/A
3:00 PM41 °FPassing clouds.12 mph39%30.39 "HgN/A
2:30 PM41 °FPassing clouds.13 mph39%30.39 "HgN/A
2:00 PM39 °FPassing clouds.12 mph42%30.39 "HgN/A
1:30 PM39 °FPassing clouds.9 mph45%30.39 "HgN/A
1:00 PM37 °FSunny.9 mph48%30.39 "Hg10 mi
12:30 PM37 °FPassing clouds.9 mph48%30.39 "HgN/A
12:00 PM36 °FPassing clouds.10 mph56%30.39 "HgN/A
11:30 AM34 °FPassing clouds.8 mph56%30.39 "HgN/A
11:00 AM34 °FPassing clouds.8 mph56%30.39 "HgN/A
10:30 AM32 °FPassing clouds.12 mph60%30.39 "HgN/A
10:00 AM32 °FPassing clouds.10 mph60%30.39 "HgN/A
9:30 AM30 °FSunny.12 mph64%30.39 "Hg10 mi
9:00 AM28 °FPassing clouds.10 mph69%30.39 "HgN/A
8:30 AM28 °FPassing clouds.10 mph69%30.39 "HgN/A
8:00 AM28 °FClear.10 mph69%30.36 "Hg10 mi
7:30 AM28 °FPassing clouds.9 mph69%30.36 "HgN/A
7:00 AM28 °FClear.10 mph69%30.36 "Hg10 mi
6:30 AM28 °FPassing clouds.10 mph74%30.36 "HgN/A
6:00 AM28 °FClear.10 mph74%30.36 "Hg10 mi
Weather by CustomWeather, © 2014

See weather overviewHow to use our weather pages